www.pogodaiklimat.ru

Погода и климат >> Архив погоды >> Австрия >> Альбершвенде


ПОГОДА в Альбершвенде

  • Прогноз погоды в Альбершвенде
  • Монитор погоды в Альбершвенде

АРХИВ ПОГОДЫ в Альбершвенде

Время (UTC), дата Ветер
(напр.,м/с)
 
Видим.   Явления Облачность Т
(С)
Тd
(С)
f
(%)
Тe
(С)
Тes
(С)
Комфортность P
(гПа)
Po
(гПа)
Тmin
(С)
Tmax
(С)
R
(мм)
R24
(мм)
S
(см)
19 10.06 ЮЗ 2 н/о н/о +14.2 +12.5 90 +14 +14 1012.7 931.2
20 10.06 ЮЗ 3 н/о осадки н/о +13.6 +12.5 93 +12 +12 1012.6 931.0 0.2
21 10.06 ЮЗ 3 н/о в посл. час осадки н/о +13.4 +12.5 94 +12 +12 1012.0 930.4 0.7
22 10.06 З 3 н/о осадки н/о +13.4 +12.5 94 +12 +12 1011.7 930.1 0.0
23 10.06 ЮЗ 6 н/о осадки н/о +12.1 +11.0 93 +9 +9 1012.8 930.7 2
00 11.06 ЮЗ 3 н/о осадки {ливн. осадки} н/о +11.7 +10.5 92 +10 +10 1013.2 931.0 3
01 11.06 ЮЗ 2 н/о осадки н/о +11.5 +10.2 92 +10 +10 1014.0 931.6 0.6
02 11.06 ЮЗ 3 н/о осадки н/о +10.8 +9.8 94 +9 +9 1014.9 932.3 5
03 11.06 Ю 2 н/о осадки н/о +10.3 +8.2 87 +9 +9 1015.5 932.6 10
04 11.06 ЮВ 2 н/о в посл. час осадки н/о +10.5 +8.2 86 +9 +9 1012.9 930.3 0.5
05 11.06 СВ 1 н/о в посл. час осадки н/о +9.9 +9.5 97 +9 +9 1011.6 929.0 0.1
06 11.06 СВ 2 н/о {ливн. осадки} н/о +11.6 +10.2 91 +10 +10 1010.6 928.5 +9.6 +14.3 14
07 11.06 штиль 0 н/о н/о +13.6 +9.5 76 +13 +13 1009.3 927.9
08 11.06 С 1 н/о н/о +15.0 +10.9 76 +16 +16 1008.8 927.8
09 11.06 СЗ 1 н/о н/о +16.4 +11.5 73 +17 +17 1008.0 927.5
10 11.06 ЮЗ 2 н/о н/о +15.9 +11.6 76 +16 +16 1008.1 927.4
11 11.06 ЮЗ 4 н/о н/о +16.2 +11.8 75 +15 +15 1008.2 927.6
12 11.06 З 3 н/о н/о +16.8 +12.0 73 +17 +17 1008.1 927.7
13 11.06 ЮЗ 4 н/о н/о +17.5 +12.8 74 +17 +17 1008.2 928.0
14 11.06 З 4 н/о н/о +16.0 +12.0 77 +15 +15 1008.9 928.2
15 11.06 ЮЗ 3 н/о н/о +15.0 +11.9 82 +14 +14 1009.6 928.6
16 11.06 ЮЗ 3 н/о н/о +14.5 +11.9 84 +14 +14 1009.9 928.7
17 11.06 ЮЗ 3 н/о н/о +14.4 +11.8 84 +13 +13 1010.3 929.1
18 11.06 ЮЗ 3 н/о н/о +13.9 +12.3 90 +13 +13 1010.4 929.0 +11.3 +18.0
19 11.06 ЮЗ 2 н/о ливневой дождь н/о +13.3 +12.4 94 +12 +12 1010.5 929.0 0.0
20 11.06 ЮЗ 3 н/о ливневой дождь н/о +13.0 +12.3 96 +12 +12 1010.5 928.9 0.0
21 11.06 ЮЗ 1 н/о {ливн. осадки} н/о +13.2 +12.4 95 +13 +13 1010.3 928.8 0.0
22 11.06 С 1 н/о в посл. час осадки н/о +13.2 +12.5 96 +13 +13 1010.7 929.1 0.2
23 11.06 СВ 1 н/о ливневой дождь н/о +12.8 +12.3 97 +13 +13 1009.7 928.1 0.5
00 12.06 З 1 н/о осадки {ливн. осадки} н/о +12.8 +12.4 97 +13 +13 1008.5 927.0 2
01 12.06 ЮЗ 1 н/о осадки н/о +12.8 +12.2 96 +13 +13 1008.9 927.4 3
02 12.06 ЮЗ 1 н/о осадки н/о +12.7 +12.2 97 +13 +13 1008.0 926.5 1
03 12.06 ЮЗ 2 н/о в посл. час осадки н/о +12.8 +12.2 96 +12 +12 1007.7 926.3 4
04 12.06 З 2 н/о н/о +12.6 +12.4 99 +12 +12 1007.8 926.3
05 12.06 З 1 н/о в посл. час осадки н/о +12.8 +12.4 97 +13 +13 1007.8 926.4 0.0
06 12.06 ЮЗ 1 н/о осадки {ливн. осадки} н/о +13.2 +12.4 95 +13 +13 1008.4 927.0 +12.6 +14.2 7
07 12.06 З 1 н/о в посл. час осадки н/о +14.3 +13.2 93 +15 +15 1008.0 927.0 0.1
08 12.06 З 5 н/о осадки н/о +11.5 +10.6 94 +9 +9 1010.8 928.7 0.0
09 12.06 З 4 н/о осадки {ливн. осадки} н/о +10.6 +9.4 92 +8 +8 1012.5 930.0 0.8
10 12.06 ЮЗ 3 н/о осадки н/о +10.7 +8.9 89 +9 +9 1013.6 931.0 0.9
11 12.06 штиль 0 н/о в посл. час осадки н/о +13.2 +9.2 77 +13 +13 1012.7 930.9 0.8
12 12.06 ЮЗ 1 н/о в посл. час осадки {ливн. осадки} н/о +13.0 +7.6 70 +13 +13 1013.0 931.1 3
13 12.06 СВ 1 н/о н/о +14.9 +10.8 76 +15 +15 1012.2 930.9 0.0
14 12.06 С 1 н/о н/о +16.3 +8.2 59 +17 +17 1011.7 930.8
15 12.06 С 1 н/о н/о +17.3 +9.6 61 +18 +18 1011.4 930.8 0.0
16 12.06 З 1 н/о н/о +17.9 +9.0 56 +19 +19 1010.7 930.3
17 12.06 З 1 н/о н/о +16.7 +8.5 58 +18 +18 1011.2 930.4
18 12.06 ЮЗ 3 н/о н/о +15.6 +9.2 66 +15 +15 1012.1 931.0 +10.3 +18.2 3
19 12.06 Ю 2 н/о н/о +15.3 +8.4 63 +15 +15 1012.7 931.4
20 12.06 Ю 1 н/о осадки н/о +14.3 +9.4 72 +15 +15 1013.0 931.5 0.0
21 12.06 Ю 1 н/о в посл. час осадки н/о +13.3 +9.1 76 +14 +14 1014.0 932.1 0.1
22 12.06 штиль 0 н/о н/о +12.3 +8.7 79 +12 +12 1014.3 932.1
23 12.06 штиль 0 н/о н/о +11.6 +8.5 81 +11 +11 1014.8 932.4
00 13.06 ЮЗ 1 н/о {осадки} н/о +10.6 +8.2 85 +10 +10 1015.4 932.6 0.1
01 13.06 штиль 0 н/о н/о +9.8 +8.4 91 +9 +9 1015.5 932.5
02 13.06 ЮЗ 1 н/о н/о +10.1 +9.0 93 +10 +10 1015.5 932.6
03 13.06 Ю 1 н/о н/о +10.8 +9.4 91 +10 +10 1015.4 932.7
04 13.06 штиль 0 н/о н/о +10.8 +9.5 92 +10 +10 1015.8 933.1
05 13.06 штиль 0 н/о н/о +11.9 +10.2 89 +11 +11 1015.6 933.2
06 13.06 штиль 0 н/о н/о +13.1 +11.3 89 +13 +13 1015.4 933.4 +9.4 +15.7 0.1
07 13.06 СЗ 1 н/о н/о +14.3 +11.3 82 +15 +15 1015.2 933.5
08 13.06 СВ 1 н/о н/о +17.0 +11.0 68 +18 +18 1014.1 933.2
09 13.06 ЮЗ 1 н/о н/о +17.1 +9.9 63 +18 +18 1014.0 933.1
10 13.06 З 2 н/о н/о +17.4 +10.9 66 +18 +18 1013.9 933.2
11 13.06 ЮЗ 3 н/о н/о +18.3 +11.9 66 +19 +19 1013.7 933.2
12 13.06 ЮЗ 4 н/о н/о +19.1 +12.2 64 +20 +20 1013.2 933.0
13 13.06 ЮЗ 4 н/о н/о +20.0 +10.8 55 +22 +22 комфорт 1013.0 933.0
14 13.06 З 3 н/о н/о +20.5 +9.1 48 +22 +22 комфорт 1012.9 933.0
15 13.06 З 3 н/о н/о +21.0 +10.8 52 +23 +23 комфорт 1012.7 933.0
16 13.06 З 2 н/о н/о +20.8 +9.5 48 +23 +23 комфорт 1013.0 933.2
17 13.06 З 2 н/о н/о +20.4 +9.4 49 +22 +22 комфорт 1013.5 933.5
18 13.06 З 2 н/о н/о +19.4 +9.8 54 +21 +21 комфорт 1014.5 934.2 +12.7 +21.1
19 13.06 Ю 2 н/о н/о +18.3 +9.6 57 +19 +19 1015.1 934.5
20 13.06 штиль 0 н/о н/о +15.2 +10.4 73 +15 +15 1016.2 934.7
21 13.06 штиль 0 н/о н/о +14.9 +10.1 73 +15 +15 1016.5 934.9
22 13.06 ЮЗ 1 н/о н/о +13.7 +10.1 79 +14 +14 1017.3 935.3
23 13.06 штиль 0 н/о н/о +13.0 +9.9 81 +13 +13 1017.7 935.4
00 14.06 штиль 0 н/о н/о +11.3 +9.2 87 +11 +11 1018.1 935.3
01 14.06 Ю 1 н/о н/о +11.1 +9.5 90 +11 +11 1017.7 934.9
02 14.06 Ю 1 н/о н/о +10.4 +9.3 93 +10 +10 1017.7 934.7
03 14.06 ЮЗ 1 н/о н/о +9.9 +8.9 93 +9 +9 1017.9 934.7
04 14.06 Ю 1 н/о н/о +9.7 +8.7 93 +9 +9 1017.5 934.3
05 14.06 ЮЗ 1 н/о н/о +11.2 +9.3 88 +11 +11 1016.5 933.8
06 14.06 штиль 0 н/о н/о +14.3 +10.0 75 +14 +14 1015.4 933.7 +9.6 +19.6
07 14.06 З 1 н/о н/о +15.4 +10.5 73 +16 +16 1015.5 934.1
08 14.06 СВ 1 н/о н/о +19.3 +12.2 63 +22 +22 комфорт 1014.6 934.3
09 14.06 СВ 1 н/о н/о +21.5 +10.4 49 +23 +23 комфорт 1014.2 934.5
10 14.06 З 1 н/о н/о +23.7 +7.5 35 +24 +24 комфорт 1013.9 934.7
11 14.06 ЮЗ 6 н/о н/о +20.8 +11.7 56 +23 +23 комфорт 1015.8 935.8
12 14.06 ЮЗ 4 н/о н/о +21.4 +10.2 49 +23 +23 комфорт 1015.7 935.8
13 14.06 ЮЗ 3 н/о н/о +21.2 +11.1 52 +23 +23 комфорт 1015.0 935.2
14 14.06 ЮЗ 1 н/о н/о +22.8 +9.9 44 +25 +25 комфорт 1013.8 934.4
15 14.06 С 1 н/о н/о +24.1 +11.6 45 +26 +26 жарко 1012.3 933.4
16 14.06 СВ 1 н/о н/о +24.2 +11.7 46 +26 +26 жарко 1011.5 932.7
17 14.06 СВ 1 н/о н/о +23.6 +12.8 51 +26 +26 жарко 1010.0 931.2
18 14.06 Ю 3 н/о н/о +21.9 +13.8 60 +25 +25 комфорт 1010.4 931.2 +13.4 +24.9
19 14.06 В 1 н/о н/о +20.6 +14.8 69 +24 +24 комфорт 1010.3 930.8
20 14.06 Ю 1 н/о н/о +19.4 +14.0 71 +22 +22 комфорт 1011.4 931.5
21 14.06 штиль 0 н/о н/о +18.9 +13.6 71 +20 +20 1011.3 931.2
22 14.06 Ю 1 н/о н/о +17.3 +13.1 76 +18 +18 1011.7 931.2
23 14.06 штиль 0 н/о н/о +17.4 +12.8 74 +17 +17 1011.7 931.2
00 15.06 В 2 н/о н/о +17.4 +12.7 74 +18 +18 1010.7 930.3
01 15.06 З 1 н/о н/о +16.3 +12.7 79 +17 +17 1010.3 929.6
02 15.06 Ю 3 н/о н/о +18.0 +12.1 68 +18 +18 1009.8 929.6
03 15.06 ЮЗ 1 н/о н/о +16.1 +12.0 77 +17 +17 1010.8 930.0
04 15.06 ЮЗ 2 н/о н/о +19.1 +10.9 59 +21 +21 комфорт 1011.6 931.5
05 15.06 В 1 н/о н/о +17.6 +12.5 72 +19 +19 1013.6 933.0
06 15.06 З 1 н/о н/о +18.8 +12.9 69 +21 +21 комфорт 1013.8 933.5 +15.8 +22.0
07 15.06 З 2 н/о н/о +17.9 +12.4 70 +18 +18 1014.7 934.1
08 15.06 ЮЗ 3 н/о н/о +18.5 +12.9 70 +19 +19 1014.9 934.4
09 15.06 З 3 н/о н/о +19.2 +12.4 65 +21 +21 комфорт 1015.1 934.8
10 15.06 ЮЗ 3 н/о н/о +18.9 +13.4 70 +20 +20 1015.3 934.9
11 15.06 ЮЗ 2 н/о н/о +20.5 +14.2 67 +24 +24 комфорт 1014.8 934.9
12 15.06 З 2 н/о н/о +19.9 +13.3 66 +22 +22 комфорт 1015.2 935.1
13 15.06 З 3 н/о н/о +19.6 +13.3 67 +21 +21 комфорт 1015.4 935.2
14 15.06 З 2 н/о н/о +20.1 +12.9 63 +23 +23 комфорт 1014.6 934.6
15 15.06 С 1 н/о н/о +21.6 +13.8 61 +24 +24 комфорт 1013.9 934.3
16 15.06 В 2 н/о н/о +21.6 +12.7 57 +24 +24 комфорт 1012.8 933.3
17 15.06 СВ 1 н/о н/о +20.9 +13.3 62 +25 +25 комфорт 1012.8 933.1
18 15.06 штиль 0 н/о н/о +20.1 +13.5 66 +22 +22 комфорт 1013.1 933.2 +17.7 +22.1
19 15.06 СВ 1 н/о н/о +19.2 +12.1 63 +21 +21 комфорт 1013.1 932.9 0.0
20 15.06 З 5 н/о осадки н/о +14.4 +11.7 84 +13 +13 1017.4 935.6 1
21 15.06 З 4
{14}
н/о {осадки} н/о +12.8 +11.2 90 +11 +11 1020.5 938.0 13
22 15.06 ЮЗ 2 н/о ливневой дождь {осадки} н/о +12.6 +11.1 91 +12 +12 1020.7 938.1 1
23 15.06 ЮВ 1 н/о н/о +12.6 +11.2 91 +13 +13 1021.0 938.4 0.0
00 16.06 ЮЗ 2
{14}
н/о осадки {ливн. осадки} н/о +12.5 +10.4 87 +12 +12 1021.1 938.4 14
01 16.06 штиль 0 н/о н/о +12.4 +11.3 93 +12 +12 1020.7 938.1 0.0
02 16.06 СЗ 1 н/о в посл. час осадки н/о +12.4 +11.5 94 +12 +12 1020.7 938.1 0.1
03 16.06 ЮВ 1 н/о {осадки} н/о +12.3 +11.3 94 +12 +12 1020.8 938.1 0.1
04 16.06 ЮЗ 1 н/о н/о +12.5 +11.5 94 +12 +12 1020.8 938.2
05 16.06 ЮВ 1 н/о н/о +12.3 +11.1 92 +12 +12 1021.2 938.5
06 16.06 ЮЗ 1
{14}
н/о {осадки} н/о +13.3 +11.5 89 +13 +13 1021.4 939.0 +12.2 +20.2 14
07 16.06 ЮЗ 2 н/о н/о +14.9 +10.2 73 +15 +15 1021.3 939.3
08 16.06 ЮЗ 2 н/о н/о +15.3 +10.4 73 +15 +15 1021.5 939.6
09 16.06 З 2 н/о н/о +15.1 +10.8 75 +15 +15 1021.7 939.7
10 16.06 З 2 н/о н/о +14.8 +11.0 78 +15 +15 1022.2 940.1
11 16.06 ЮЗ 2 н/о н/о +15.1 +11.7 80 +15 +15 1022.2 940.2
12 16.06 СЗ 2 н/о н/о +16.8 +11.6 71 +17 +17 1021.3 939.8
13 16.06 ЮЗ 3 н/о н/о +17.2 +11.3 68 +17 +17 1021.0 939.6
14 16.06 ЮЗ 3 н/о н/о +17.7 +10.9 64 +18 +18 1020.5 939.3
15 16.06 ЮЗ 2 н/о н/о +18.4 +10.6 60 +19 +19 1020.2 939.2
16 16.06 С 1 н/о н/о +18.3 +12.2 68 +20 +20 1020.1 939.1 0.0
17 16.06 СВ 1 н/о н/о +17.9 +11.7 67 +19 +19 1020.4 939.3 0.0
18 16.06 СВ 1 н/о н/о +17.9 +11.3 65 +19 +19 1020.4 939.3 +13.2 +19.6 0.0
19 16.06 ЮВ 1 н/о н/о +17.3 +11.3 68 +18 +18 1020.4 939.1
20 16.06 В 1 н/о н/о +15.5 +11.3 76 +16 +16 1021.0 939.2
21 16.06 СВ 1 н/о н/о +13.6 +11.0 84 +14 +14 1021.9 939.5
22 16.06 СВ 1 н/о н/о +13.4 +11.0 85 +14 +14 1021.7 939.3
23 16.06 СВ 1 н/о н/о +12.7 +10.8 88 +13 +13 1021.4 938.8
00 17.06 В 1 н/о н/о +11.6 +10.1 91 +11 +11 1021.8 938.8
01 17.06 ЮЗ 1 н/о н/о +10.8 +9.6 92 +10 +10 1021.7 938.5
02 17.06 ЮЗ 1 н/о н/о +10.9 +9.5 91 +11 +11 1021.2 938.1
03 17.06 ЮЗ 1 н/о н/о +9.9 +8.9 93 +9 +9 1021.4 938.0
04 17.06 Ю 1 н/о н/о +9.7 +9.0 95 +9 +9 1021.6 938.1
05 17.06 штиль 0 н/о н/о +12.0 +9.8 86 +11 +11 1020.7 937.9
06 17.06 СВ 1 н/о н/о +14.3 +10.8 79 +15 +15 1019.9 937.8 +9.5 +18.3
07 17.06 СВ 2 н/о н/о +15.7 +11.6 77 +16 +16 1019.3 937.7
08 17.06 штиль 0 н/о н/о +17.6 +11.4 67 +18 +18 1018.0 937.0
09 17.06 С 1 н/о н/о +19.4 +13.1 67 +22 +22 комфорт 1017.2 936.8
10 17.06 С 1 н/о н/о +20.5 +14.0 66 +24 +24 комфорт 1016.4 936.4
11 17.06 штиль 0 н/о н/о +20.9 +13.0 61 +23 +23 комфорт 1015.9 936.0
12 17.06 ЮЗ 3 н/о н/о +21.4 +14.9 66 +24 +24 комфорт 1015.4 935.7
13 17.06 ЮЗ 4 н/о н/о +22.2 +14.8 63 +26 +26 душно 1015.0 935.5
15 17.06 ЮЗ 4 н/о н/о +23.1 +14.8 60 +27 +27 душно 1014.0 934.8 0.0
17 17.06 ЮЗ 3 н/о н/о +23.4 +14.9 59 +27 +27 душно 1013.7 934.6
18 17.06 З 3 н/о н/о +23.0 +14.5 59 +27 +27 душно 1013.7 934.5 +14.0 +23.7
19 17.06 ЮЗ 1 н/о н/о +21.1 +14.6 66 +24 +24 комфорт 1014.3 934.6

 

Местоположение метеостанции Альбершвенде (Австрия): широта 47.46 долгота 9.85 высота над уровнем моря 715 м.

В архиве по умолчанию представлена погода в Альбершвенде за последнюю неделю. Архивные данные за месяц целиком и за предыдущие месяцы, начиная с января 2011 года, Вы можете получить, выбрав интересующий диапазон дат из раскрывающегося списка и нажав кнопку "Ввод!".


*Определитесь, кто Вы:
робот инопланетянин человек

Внимание! Время в таблицах - всемирное. Для получения местного времени необходимо прибавить поправку, которая равна 1 ч.

Смотрите также архив погоды в соседних городах и на ближайших метеорологических станциях:

Погода в Брегенце (Австрия) (9 км)
Погода в Дорнбирне (Австрия) (10 км)
Погода в Санкт-Галлен-Альтенрайне (Швейцария) (22 км)
Погода в Фельдкирхе (Австрия) (27 км)
Погода в Оберстдорфе (Германия) (33 км)
Погода в Санкт-Галлене (Швейцария) (34 км)
Погода в Варте (Австрия) (34 км)
Погода в Херлацхофене (Германия) (40 км)
Погода на Зентисе (Швейцария) (44 км)
Погода в Вадуце (Лихтенштейн) (44 км)

Пояснения к столбцам:

Ветер - указаны скорость ветра в м/с - средняя за 10 мин, порывы в срок и между сроками (в фигурных скобках) и направление, откуда дует ветер: С - северный, СВ - северо-восточный, В - восточный, ЮВ - юго-восточный, Ю - южный, ЮЗ - юго-западный, З - западный, СЗ - северо-западный.
Видимость - горизонтальная дальность видимости в метрах или километрах. При видимости от 1 до 10 км при отсутствии осадков обычно наблюдается дымка, при ухудшении видимости до 1 км и менее - туман. В сухую погоду видимость может ухудшаться дымом, пылью или мглою.
Явления - указаны атмосферные явления, наблюдавшиеся в срок или в последний час перед сроком; фигурными скобками обозначены явления, наблюдавшиеся между сроками (за 1-3 часа до срока); квадратными скобками обозначены град или гололедные отложения с указанием их диаметра в мм.
Облачность - указаны через наклонную черту общая и нижняя облачность в баллах и высота нижней границы облаков в метрах; квадратными скобками обозначены формы облаков: Ci - перистые, Cs - перисто-слоистые, Cc - перисто-кучевые, Ac - высококучевые, As - высокослоистые, Sc - слоисто-кучевые, Ns - слоисто-дождевые, Cu - кучевые, Cb - кучево-дождевые. Подробнее классификацию облаков см. в Атласе облаков (PDF).
T - Температура воздуха - температура, измеренная на высоте 2 м над землей.
Td - Температура точки росы - температура, при понижении до которой содержащийся в воздухе водяной пар достигнет насыщения.
f - Относительная влажность воздуха - влажноcть воздуха, измеренная на высоте 2 м над землей.
Te - Эффективная температура - температура, которую ощущает одетый по сезону человек в тени. Характеристика душности погоды. При расчете учитывается влияние влажности воздуха и скорости ветра на теплоощущения человека.
Tes - Эффективная температура на солнце - температура, которую ощущает человек, с поправкой на солнечный нагрев. Характеристика знойности погоды. Зависит от высоты солнца над горизонтом, облачности и скорости ветра. Ночью, в пасмурную погоду, а также при ветре 12 м/с и более поправка равна нулю.
P - Атмосферное давление - приведенное к уровню моря атмосферное давление.
Po - Атмосферное давление - измеренное на уровне метеостанции атмосферное давление.
Tmin - Минимальная температура - минимум температуры воздуха на высоте 2 м над землей.
Tmax - Максимальная температура - максимум температуры воздуха на высоте 2 м над землей.
R - Количество осадков - Количество выпавших осадков за период времени, мм. При наведении курсора мыши на число - период времени, за который выпало указанное количество осадков.
R24 - Количество осадков - Количество выпавших осадков за 24 часа, мм.
S - Снежный покров - Высота снежного покрова, см. При наведении курсора мыши на число - состояние снежного покрова и степень покрытия местности в баллах.